Weather History for KBGM - April, 2014

Change the Weather History Date:

Tuesday, April 29, 2014

  Actual Average Record
Temperature  
Mean Temperature 45 °F 50 °F  
Max Temperature 50 °F 60 °F 83 °F (1974)
Min Temperature 39 °F 41 °F 25 °F (1977)
Degree Days  
Heating Degree Days 20 15  
Month to date heating degree days 581 588  
Since 1 July heating degree days 7252 6784  
Cooling Degree Days 0 0  
Month to date cooling degree days 2 0  
Year to date cooling degree days 2 0  
Moisture  
Dew Point 38 °F    
Average Humidity 74    
Maximum Humidity 100    
Minimum Humidity 48    
Precipitation  
Precipitation 0.46 in 0.12 in 0.86 in (1981)
Month to date precipitation 2.60 3.32  
Year to date precipitation 10.97 11.07  
Snow  
Snow 0.00 in 0.00 in T in (2008)
Month to date snowfall 1.0 4.2  
Since 1 July snowfall 85.4 83.2  
Snow Depth 0.00 in    
Sea Level Pressure  
Sea Level Pressure 30.18 in    
Wind  
Wind Speed 17 mph (SE)    
Max Wind Speed 28 mph    
Max Gust Speed 39 mph    
Visibility 7 miles    
Events Rain    
T = Trace of Precipitation, MM = Missing Value Source: NWS Daily Summary

Daily Weather History Graph

Daily Weather History Graph

Search for Another Location

Airport or City:

Trip Planner

Search our weather history database for the weather conditions in past years. The results will help you decide how hot, cold, wet, or windy it might be!

Date:

Astronomy

Apr. 29, 2014 Rise Set
Actual Time 6:02 AM EDT 8:00 PM EDT
Civil Twilight 5:31 AM EDT 8:31 PM EDT
Nautical Twilight 4:54 AM EDT 9:08 PM EDT
Astronomical Twilight 4:14 AM EDT 9:49 PM EDT
Moon 6:18 AM EDT (4/29) 8:39 PM EDT (4/29)
Length of Visible Light 14h 59m
Length of Day
13h 58m
New Moon, 0% of the Moon is Illuminated
Apr 29
New Moon
May 6
First Quarter
May 14
Full
May 21
Last Quarter
May 28
New

Hourly Weather History & Observations

Time (EDT) Temp. Windchill Dew Point Humidity Pressure Visibility Wind Dir Wind Speed Gust Speed Precip Events Conditions
12:53 AM 51.1 °F - 32.0 °F 48% 30.03 in 10.0 mi SE 12.7 mph - N/A   Clear
1:53 AM 50.0 °F - 32.0 °F 50% 30.07 in 10.0 mi SSE 10.4 mph - N/A   Clear
2:53 AM 50.0 °F - 34.0 °F 54% 30.04 in 10.0 mi ESE 16.1 mph - N/A   Clear
3:53 AM 48.0 °F - 34.0 °F 58% 30.06 in 10.0 mi SE 16.1 mph 23.0 mph N/A   Clear
4:53 AM 46.9 °F - 35.1 °F 63% 30.09 in 10.0 mi SE 16.1 mph 23.0 mph N/A   Clear
5:53 AM 46.9 °F - 36.0 °F 66% 30.13 in 10.0 mi SE 17.3 mph 28.8 mph N/A   Overcast
6:53 AM 45.0 °F 37.6 °F 35.1 °F 68% 30.13 in 10.0 mi SE 17.3 mph 29.9 mph N/A   Overcast
7:53 AM 45.0 °F 36.0 °F 36.0 °F 71% 30.15 in 10.0 mi SE 25.3 mph 29.9 mph N/A   Overcast
8:53 AM 44.6 °F 36.4 °F 37.4 °F 76% 30.15 in 10.0 mi SE 20.7 mph 31.1 mph N/A   Overcast
9:53 AM 45.0 °F 37.1 °F 37.0 °F 74% 30.18 in 10.0 mi SE 19.6 mph - N/A   Overcast
10:53 AM 45.0 °F 37.4 °F 37.0 °F 74% 30.19 in 10.0 mi SSE 18.4 mph 29.9 mph N/A   Overcast
11:53 AM 43.0 °F 36.0 °F 39.9 °F 89% 30.20 in 5.0 mi SE 13.8 mph 23.0 mph 0.00 in Rain Light Rain
12:08 PM 42.8 °F 33.8 °F 39.2 °F 87% 30.17 in 4.0 mi SE 21.9 mph 31.1 mph 0.02 in Rain Light Rain
12:53 PM 43.0 °F 34.5 °F 41.0 °F 93% 30.18 in 4.0 mi SE 19.6 mph 27.6 mph 0.04 in Rain Light Rain
1:41 PM 42.8 °F 33.8 °F 39.2 °F 87% 30.15 in 5.0 mi SSE 21.9 mph 34.5 mph 0.04 in Rain Light Rain
1:53 PM 42.1 °F 33.1 °F 39.9 °F 92% 30.17 in 5.0 mi SE 20.7 mph 33.4 mph 0.07 in Rain Light Rain
2:07 PM 42.8 °F 34.3 °F 39.2 °F 87% 30.15 in 4.0 mi SE 19.6 mph 33.4 mph 0.00 in Rain Rain
2:16 PM 42.8 °F 33.5 °F 39.2 °F 87% 30.15 in 5.0 mi SE 23.0 mph 33.4 mph 0.04 in Rain Light Rain
2:26 PM 42.8 °F 34.3 °F 39.2 °F 87% 30.15 in 5.0 mi SE 19.6 mph 33.4 mph 0.06 in Rain Rain
2:53 PM 41.0 °F 31.9 °F 39.0 °F 93% 30.18 in 6.0 mi SSE 19.6 mph 31.1 mph 0.09 in Rain Light Rain
3:53 PM 41.0 °F 32.2 °F 39.0 °F 93% 30.17 in 8.0 mi SSE 18.4 mph 29.9 mph 0.04 in Rain Light Rain
4:53 PM 41.0 °F 31.4 °F 37.9 °F 89% 30.20 in 10.0 mi SE 21.9 mph 31.1 mph 0.01 in   Overcast
5:53 PM 41.0 °F 33.9 °F 37.4 °F 87% 30.19 in 10.0 mi SE 12.7 mph 27.6 mph N/A   Overcast
6:53 PM 39.9 °F 31.1 °F 37.9 °F 93% 30.23 in 6.0 mi SSE 17.3 mph - 0.00 in Rain Light Rain
7:10 PM 39.2 °F 32.0 °F 39.2 °F 100% 30.21 in 2.5 mi SSE 11.5 mph - 0.01 in Rain Light Rain
7:17 PM 39.2 °F 32.5 °F 39.2 °F 100% 30.22 in 2.5 mi SSE 10.4 mph - 0.02 in Rain Light Rain
7:28 PM 39.2 °F 31.6 °F 39.2 °F 100% 30.22 in 2.0 mi SSE 12.7 mph - 0.02 in Rain Light Rain
7:48 PM 39.2 °F 31.6 °F 39.2 °F 100% 30.23 in 4.0 mi SSE 12.7 mph - 0.03 in Rain Light Rain
7:53 PM 39.9 °F 33.9 °F 39.0 °F 97% 30.27 in 5.0 mi SSE 9.2 mph 19.6 mph 0.03 in Rain Light Rain
8:08 PM 39.2 °F 30.8 °F 37.4 °F 93% 30.24 in 2.0 mi SSE 15.0 mph 20.7 mph 0.02 in Rain Rain
8:29 PM 39.2 °F 32.0 °F 39.2 °F 100% 30.25 in 4.0 mi SSE 11.5 mph - 0.04 in Rain Light Rain
8:53 PM 39.0 °F 31.8 °F 37.9 °F 96% 30.28 in 5.0 mi SSE 11.5 mph - 0.05 in Rain Light Rain
9:53 PM 39.0 °F 30.3 °F 37.9 °F 96% 30.28 in 4.0 mi SSE 16.1 mph 24.2 mph 0.04 in Rain Light Rain
10:42 PM 39.2 °F 31.2 °F 37.4 °F 93% 30.25 in 2.5 mi SE 13.8 mph - 0.05 in Rain Rain
10:49 PM 39.2 °F 31.6 °F 37.4 °F 93% 30.25 in 5.0 mi SE 12.7 mph - 0.07 in Rain Light Rain
10:53 PM 39.0 °F 31.0 °F 37.9 °F 96% 30.29 in 7.0 mi SE 13.8 mph - 0.07 in Rain Light Rain
11:16 PM 39.2 °F 30.8 °F 37.4 °F 93% 30.25 in 10.0 mi SE 15.0 mph 26.5 mph 0.01 in   Overcast
11:53 PM 39.0 °F 32.3 °F 37.0 °F 93% 30.30 in 9.0 mi SSE 10.4 mph 19.6 mph 0.01 in   Overcast